Williamsport, PA

6:57 PM EDT on October 19, 2017 (GMT -0400)
Williamsport Rgnl

Weather History for KIPT - July, 2014

Change the Weather History Date:

Sunday, July 20, 2014

  Actual Average Record
Temperature  
Mean Temperature 73 °F 73 °F  
Max Temperature 82 °F 84 °F 100 °F (1991)
Min Temperature 64 °F 62 °F 43 °F (1965)
Degree Days  
Heating Degree Days 0 0  
Month to date heating degree days 0 0  
Since 1 June heating degree days 8 37  
Since 1 July heating degree days 0 0  
Cooling Degree Days 8 8  
Month to date cooling degree days 170 157  
Year to date cooling degree days 391 346  
Since 1 June cooling degree days 339 303  
Growing Degree Days 23 (Base 50)    
Moisture  
Dew Point 58 °F    
Average Humidity 65    
Maximum Humidity 87    
Minimum Humidity 43    
Precipitation  
Precipitation 0.00 in 0.15 in 1.22 in (1981)
Month to date precipitation 3.24 2.72  
Year to date precipitation 21.45 21.55  
Sea Level Pressure  
Sea Level Pressure 30.11 in    
Wind  
Wind Speed 5 mph (ESE)    
Max Wind Speed 12 mph    
Max Gust Speed 16 mph    
Visibility 10 miles    
Events      
T = Trace of Precipitation, MM = Missing Value Source: NWS Daily Summary

Daily Weather History Graph

Daily Weather History Graph

Search for Another Location

Airport or City:

Trip Planner

Search our weather history database for the weather conditions in past years. The results will help you decide how hot, cold, wet, or windy it might be!

Date:

Astronomy

Jul. 20, 2014 Rise Set
Actual Time 5:51 AM EDT 8:35 PM EDT
Civil Twilight 5:19 AM EDT 9:07 PM EDT
Nautical Twilight 4:39 AM EDT 9:48 PM EDT
Astronomical Twilight 3:52 AM EDT 10:34 PM EDT
Moon 1:03 AM EDT (7/20) 3:16 PM EDT (7/20)
Length of Visible Light 15h 48m
Length of Day
14h 43m
Waning Crescent, 34% of the Moon is Illuminated
Jul 20
Waning Crescent
Jul 26
New
Aug 3
First Quarter
Aug 10
Full
Aug 17
Last Quarter

Hourly Weather History & Observations

Time (EDT) Temp. Heat Index Dew Point Humidity Pressure Visibility Wind Dir Wind Speed Gust Speed Precip Events Conditions
12:54 AM 66.9 °F - 60.1 °F 79% 30.13 in 10.0 mi Calm Calm - N/A   Mostly Cloudy
1:54 AM 66.0 °F - 60.1 °F 81% 30.13 in 10.0 mi ENE 4.6 mph - N/A   Overcast
2:54 AM 66.0 °F - 59.0 °F 78% 30.12 in 10.0 mi ENE 4.6 mph - N/A   Scattered Clouds
3:54 AM 64.9 °F - 60.1 °F 84% 30.11 in 10.0 mi SE 3.5 mph - N/A   Mostly Cloudy
4:54 AM 64.9 °F - 59.0 °F 81% 30.11 in 10.0 mi ESE 6.9 mph - N/A   Partly Cloudy
5:54 AM 64.9 °F - 57.9 °F 78% 30.12 in 10.0 mi ENE 3.5 mph - N/A   Mostly Cloudy
6:54 AM 66.0 °F - 59.0 °F 78% 30.13 in 10.0 mi ENE 3.5 mph - N/A   Overcast
7:54 AM 68.0 °F - 55.9 °F 65% 30.14 in 10.0 mi East 9.2 mph - N/A   Overcast
8:54 AM 71.1 °F - 55.9 °F 59% 30.15 in 10.0 mi East 8.1 mph - N/A   Scattered Clouds
9:54 AM 72.0 °F - 55.9 °F 57% 30.15 in 10.0 mi East 5.8 mph - N/A   Overcast
10:54 AM 75.0 °F - 55.9 °F 51% 30.14 in 10.0 mi Variable 6.9 mph - N/A   Mostly Cloudy
11:54 AM 75.9 °F - 57.0 °F 52% 30.13 in 10.0 mi Variable 3.5 mph - N/A   Clear
12:54 PM 78.1 °F - 57.9 °F 50% 30.12 in 10.0 mi ESE 11.5 mph - N/A   Partly Cloudy
1:54 PM 79.0 °F - 57.0 °F 47% 30.10 in 10.0 mi South 9.2 mph - N/A   Clear
2:54 PM 80.1 °F 80.4 °F 57.0 °F 45% 30.09 in 10.0 mi Variable 4.6 mph - N/A   Scattered Clouds
3:54 PM 82.0 °F 81.7 °F 57.0 °F 42% 30.07 in 10.0 mi Variable 6.9 mph - N/A   Clear
4:54 PM 81.0 °F 81.0 °F 57.0 °F 44% 30.06 in 10.0 mi Variable 3.5 mph - N/A   Scattered Clouds
5:54 PM 79.0 °F - 57.9 °F 48% 30.06 in 10.0 mi SE 6.9 mph - N/A   Overcast
6:54 PM 78.1 °F - 59.0 °F 52% 30.08 in 10.0 mi SSE 4.6 mph - N/A   Overcast
7:54 PM 77.0 °F - 59.0 °F 54% 30.08 in 10.0 mi South 4.6 mph - N/A   Overcast
8:54 PM 77.0 °F - 59.0 °F 54% 30.09 in 10.0 mi South 8.1 mph - N/A   Overcast
9:54 PM 75.9 °F - 59.0 °F 56% 30.09 in 10.0 mi Calm Calm - N/A   Overcast
10:54 PM 72.0 °F - 60.1 °F 66% 30.10 in 10.0 mi ESE 3.5 mph - N/A   Clear
11:54 PM 70.0 °F - 61.0 °F 73% 30.10 in 10.0 mi ENE 3.5 mph - N/A   Mostly Cloudy